SPARK 1

导读 | 星芒AI

SPARK 1 是一颗由学生团队设计、建造和运营的小型卫星,旨在通过实际任务推动航天教育与技术发展。该卫星主要用于地球观测和通信实验,搭载了高分辨率摄像头和数据传输系统。其成功发射不仅验证了学生团队的技术能力,也促进了跨学科合作与实践教学。SPARK 1 的任务目标包括测试卫星在轨性能、收集环境数据,并为未来更复杂的航天项目积累经验。该项目体现了教育与航天科技融合的巨大潜力。

基本信息
目录编号:
41900
目录名称:
SPARK 1
国际标识:
2016-081C
轨道中心:
EARTH
卫星名称:
SPARK 1
卫星全名:
--
卫星状态:
在轨 (已飞行3234 天)
发射日期:
2016-12-21 UTC
国别 :
中国 (CN)
星等 :
--
轨道信息
数据来源 国际轨道数据
星历时间: 2025-10-28T20:13:07+0800
19小时前
查看轨道信息
半长轴: 7073.268km
偏心率: 0.0023037
轨道倾角: 98.532°
近地点辐角 317.970°
升交点赤经 284.190°
平近点角 41.973°
近地点: 678.838km
远地点: 711.428km
周期: 98.671分钟
每日圈数: 14.593943
详细信息
使用方式:
暂无
2D轨道图
3D轨道图
轨道高度分析图
轨道倾角分析图
轨道综合分析图
查看轨道综合分析图